| time (UTC) | temp F | wind direction | speed knots | gust knots | rain 1hr in | rain 24hr in | rain mn in | humidity % | barometer mb |
| 20260503021556 | 36 | 0.0 | 0.0 | 0.00 | 0.13 | 0.13 | 60 | 1010.1 | |
| 20260503020055 | 36 | 0.0 | 0.0 | 0.00 | 0.13 | 0.13 | 62 | 1010.2 | |
| 20260503014609 | 36 | 0.0 | 0.0 | 0.00 | 0.13 | 0.13 | 61 | 1010.3 | |
| 20260503013058 | 36 | 0.0 | 0.0 | 0.00 | 0.13 | 0.13 | 62 | 1010.1 | |
| 20260503011603 | 37 | 0.0 | 0.0 | 0.00 | 0.13 | 0.13 | 59 | 1010.3 | |
| 20260503010054 | 37 | 0.0 | 0.0 | 0.00 | 0.13 | 0.13 | 56 | 1010.3 | |
| 20260503004556 | 38 | 0.0 | 0.0 | 0.00 | 0.13 | 0.13 | 56 | 1010.2 | |
| 20260503003054 | 38 | 0.0 | 0.0 | 0.00 | 0.13 | 0.13 | 56 | 1010.2 | |
| 20260503001620 | 39 | 0.0 | 0.0 | 0.00 | 0.13 | 0.13 | 57 | 1010.1 | |
| 20260503000121 | 39 | 0.0 | 0.0 | 0.00 | 0.13 | 0.13 | 55 | 1010.0 | |
| 20260502234605 | 40 | 0.0 | 0.0 | 0.00 | 0.13 | 0.13 | 54 | 1009.9 | |
| 20260502233055 | 41 | 0.0 | 0.0 | 0.00 | 0.13 | 0.13 | 54 | 1009.8 | |
| 20260502231559 | 41 | 0.0 | 0.0 | 0.00 | 0.13 | 0.13 | 51 | 1009.7 | |
| 20260502230056 | 42 | 0.0 | 0.0 | 0.00 | 0.13 | 0.13 | 51 | 1009.6 | |
| 20260502224559 | 43 | 0.0 | 0.0 | 0.00 | 0.13 | 0.13 | 51 | 1009.4 | |
| 20260502223055 | 44 | 0.0 | 0.0 | 0.00 | 0.13 | 0.13 | 50 | 1009.2 | |
| 20260502221555 | 45 | 0.0 | 0.0 | 0.00 | 0.13 | 0.13 | 52 | 1009.1 | |
| 20260502220057 | 45 | 0.0 | 0.0 | 0.00 | 0.13 | 0.13 | 49 | 1009.1 | |
| 20260502214556 | 47 | 0.0 | 0.0 | 0.00 | 0.13 | 0.13 | 46 | 1009.0 | |
| 20260502213100 | 48 | 0.0 | 0.0 | 0.00 | 0.13 | 0.13 | 43 | 1008.9 | |
| 20260502211558 | 49 | 0.0 | 0.0 | 0.00 | 0.13 | 0.13 | 41 | 1008.7 | |
| 20260502210110 | 48 | 0.0 | 0.0 | 0.00 | 0.13 | 0.13 | 48 | 1008.8 | |
| 20260502204558 | 47 | 0.0 | 0.0 | 0.00 | 0.13 | 0.13 | 52 | 1008.8 | |
| 20260502203056 | 47 | 0.0 | 0.0 | 0.00 | 0.13 | 0.13 | 53 | 1008.7 | |
| 20260502201556 | 49 | 0.0 | 0.0 | 0.00 | 0.13 | 0.13 | 50 | 1008.7 | |
| 20260502200056 | 51 | 0.0 | 0.0 | 0.00 | 0.13 | 0.13 | 53 | 1008.7 | |
| 20260502194559 | 50 | 0.0 | 0.0 | 0.00 | 0.13 | 0.13 | 50 | 1008.7 | |
| 20260502193100 | 50 | 0.0 | 0.0 | 0.00 | 0.13 | 0.13 | 55 | 1008.9 | |
| 20260502191601 | 49 | 0.0 | 0.0 | 0.00 | 0.13 | 0.13 | 55 | 1009.1 | |
| 20260502190107 | 49 | 0.0 | 0.0 | 0.00 | 0.13 | 0.13 | 61 | 1009.2 | |
| 20260502184602 | 49 | 0.0 | 0.0 | 0.00 | 0.13 | 0.13 | 63 | 1009.3 | |
| 20260502183110 | 49 | 0.0 | 0.0 | 0.00 | 0.13 | 0.13 | 65 | 1009.2 | |
| 20260502181553 | 49 | 0.0 | 0.0 | 0.00 | 0.13 | 0.13 | 66 | 1009.4 | |
| 20260502163059 | 42 | 0.0 | 0.0 | 0.00 | 0.13 | 0.13 | 82 | 1009.9 | |
| 20260502161624 | 41 | 0.0 | 0.0 | 0.00 | 0.13 | 0.13 | 83 | 1010.0 | |
| 20260502151605 | 40 | 0.0 | 0.0 | 0.00 | 0.13 | 0.13 | 87 | 1010.0 | |
| 20260502123055 | 40 | 0.0 | 0.0 | 0.02 | 0.12 | 0.12 | 91 | 1010.1 | |
| 20260502121559 | 40 | 0.0 | 0.0 | 0.01 | 0.11 | 0.11 | 92 | 1009.9 | |
| 20260502114555 | 40 | 0.0 | 0.0 | 0.00 | 0.11 | 0.10 | 92 | 1009.7 | |
| 20260502113055 | 40 | 0.0 | 0.0 | 0.00 | 0.11 | 0.10 | 93 | 1009.8 | |
| 20260502111605 | 40 | 0.0 | 0.0 | 0.00 | 0.11 | 0.10 | 94 | 1009.6 | |
| 20260502110057 | 39 | 0.0 | 0.0 | 0.00 | 0.11 | 0.10 | 94 | 1009.6 | |
| 20260502104553 | 39 | 0.0 | 0.0 | 0.00 | 0.11 | 0.10 | 95 | 1009.6 | |
| 20260502103055 | 39 | 0.0 | 0.0 | 0.00 | 0.11 | 0.10 | 95 | 1009.5 | |
| 20260502101556 | 39 | 0.0 | 0.0 | 0.00 | 0.11 | 0.10 | 95 | 1009.3 | |
| 20260502090113 | 38 | 0.0 | 0.0 | 0.02 | 0.11 | 0.10 | 95 | 1009.6 | |
| 20260502070104 | 38 | 0.0 | 0.0 | 0.01 | 0.06 | 0.05 | 94 | 1009.7 | |
| 20260502064554 | 38 | 0.0 | 0.0 | 0.00 | 0.05 | 0.04 | 93 | 1009.8 | |
| 20260502063057 | 38 | 0.0 | 0.0 | 0.00 | 0.05 | 0.04 | 93 | 1009.9 | |
| 20260502061556 | 38 | 0.0 | 0.0 | 0.00 | 0.05 | 0.04 | 92 | 1009.9 | |
| 20260502060058 | 38 | 0.0 | 0.0 | 0.02 | 0.05 | 0.04 | 91 | 1010.2 | |
| 20260502054555 | 39 | 0.0 | 0.0 | 0.03 | 0.05 | 0.04 | 90 | 1010.3 | |
| 20260502053122 | 39 | 0.0 | 0.0 | 0.03 | 0.05 | 0.04 | 88 | 1010.3 | |
| 20260502051609 | 39 | 0.0 | 0.0 | 0.03 | 0.05 | 0.04 | 87 | 1010.8 | |
| 20260502050057 | 40 | 0.0 | 0.0 | 0.02 | 0.03 | 0.02 | 86 | 1010.5 | |
| 20260502044556 | 40 | 0.0 | 0.0 | 0.01 | 0.02 | 0.01 | 85 | 1010.5 | |
| 20260502043110 | 40 | 0.0 | 0.0 | 0.01 | 0.02 | 0.01 | 81 | 1010.5 | |
| 20260502041633 | 41 | 0.0 | 0.0 | 0.01 | 0.02 | 0.01 | 79 | 1010.4 | |
| 20260502034600 | 43 | 0.0 | 0.0 | 0.00 | 0.01 | 0.01 | 71 | 1010.4 | |
| 20260502033109 | 43 | 0.0 | 0.0 | 0.00 | 0.01 | 0.01 | 64 | 1010.3 | |
| 20260502031556 | 43 | 0.0 | 0.0 | 0.00 | 0.01 | 0.01 | 65 | 1010.3 | |
| 20260502030058 | 43 | 0.0 | 0.0 | 0.00 | 0.01 | 0.01 | 64 | 1010.2 | |
| 20260502024600 | 43 | 0.0 | 0.0 | 0.00 | 0.01 | 0.01 | 63 | 1010.3 | |
| 20260502023059 | 43 | 0.0 | 0.0 | 0.00 | 0.01 | 0.01 | 63 | 1010.4 |